Location: Oberkirch
(48.5323°N, 8.0787°E)
Time: 14:34:13
(UTC+00:00)

SR - Pass Details

Date: 23 February 2026
Orbit: 573 x 848 km, 66.7° (Epoch: 7 March)

Event Time Altitude Azimuth Distance (km) Brightness Sun altitude
Exits shadow 05:07:56 13° 307° (NW) 1,783 ? -12.8°
Maximum altitude 05:09:34 15° 332° (NNW) 1,676 ? -12.5°
Drops below altitude 10° 05:12:19 10° 9° (N) 2,057 ? -12.1°
Sets 05:15:37 0° 32° (NNE) 3,034 ? -11.5°
